Other Surface Observations
Issued by NWS

Home | Current Version | Previous Version | Text Only | Print | Product List | Glossary On
Versions: 1 2 3 4 5 6 7 8 9 10 11 12 13 14 15 16 17 18 19 20 21 22 23 24 25 26 27 28 29 30 31 32 33 34 35 36 37 38 39 40 41 42 43 44 45 46 47 48 49 50
000
SXUS52 KTAE 201618
OSOTAE
OSOTAE
North Florida/South Alabama/Southwest Georgia Weather Roundup
National Weather Service Tallahassee Florida
1200 PM EDT THU JUL 20 2017

Note: "fair" indicates few or no clouds below 12,000 feet with no
significant weather and/or obstructions to visibility.

!FLZ017-115-028-034-025-201700
...North Florida...

CITY           SKY/WX    TMP DP  RH WIND       PRES   REMARKS
TALLAHASSEE    PTSUNNY   92  74  55 NE7       30.10R HX 101
APALACHICOLA   MOSUNNY   88  77  69 SW6       30.09F HX 100
PERRY          SUNNY     89  74  61 CALM      30.11S HX  98
CROSS CITY     PTSUNNY   88  74  62 NW5       30.16R HX  97
JACKSONVILLE   PTSUNNY   90  73  57 VRB3      30.11R HX  98
$$

!FLZ112-006-005-002-011-201700
...Florida Panhandle...

CITY           SKY/WX    TMP DP  RH WIND       PRES   REMARKS
MARIANNA       SUNNY     92  74  55 NW6       30.10R HX 101
BONIFAY        NOT AVBL
PANAMA CITY NW PTSUNNY   91  74  57 MISG      30.09S HX 100
TYNDALL AFB    MOSUNNY   88  78  72 W6        30.10S HX 102
TYND DRONE APT FAIR      88  79  74 W5        30.10S HX 102
DE FUNIAK SPR  PTSUNNY   90  74  59 NE8       30.12R HX  99
EGLIN AFB      NOT AVBL
DESTIN         SUNNY     94  74  52 N3        30.10R HX 104
HURLBURT       SUNNY     91  75  59 N7        30.09S HX 102
CRESTVIEW      MOSUNNY   93  74  53 N7        30.12R HX 103
PENSACOLA      SUNNY     94  75  54 N7        30.11R HX 105
$$

!ALZ063-066-201700
...South Alabama...

CITY           SKY/WX    TMP DP  RH WIND       PRES   REMARKS
DOTHAN         MOSUNNY   91  77  63 N6        30.15R HX 104
OZARK CAIRNS   MOSUNNY   90  75  62 NE3       30.11R HX 100
FT RUCKER HELI SUNNY     90  75  62 N6        30.11R HX 100
RUCKER HELI 3  FAIR      89  74  60 NE7       30.11R HX  98
RUCKER HELI 2  FAIR      90  75  61 CALM      30.10S HX 100
FLORALA APT    PTSUNNY   89  73  59 N5        30.13R HX  97
ANDALUSIA      MOSUNNY   95  75  52 VRB6      30.12R HX 107
TROY           SUNNY     90  74  59 NW7       30.12S HX  99
EUFALA         FAIR      92  76  59 CALM      30.10S HX 104
MOBILE         PTSUNNY   91  74  57 N6        30.13S HX 100
$$

!GAZ120>161-201700
...Southwest and South Central Georgia...

CITY           SKY/WX    TMP DP  RH WIND       PRES   REMARKS
THOMASVILLE    FAIR      90  73  58 W5        30.12S HX  98
BAINBRIDGE     SUNNY     90  79  70 W5        30.11S HX 105
MOODY AFB      MOSUNNY   89  74  61 N6        30.10S HX  99
VALDOSTA       MOSUNNY   89  75  63 NE6       30.11S HX  99
MOULTRIE       SUNNY     90  73  58 NW3       30.12S HX  98
BLAKELY        SUNNY     91  75  59 NW3       30.11S HX 102
ALBANY         SUNNY     90  75  61 W5        30.12S HX 100
TIFTON         PTSUNNY   88  75  65 NW3       30.11S HX  97
FITZGERALD     FAIR      91  76  61 N3        30.13S HX 104
CORDELE        FAIR      94  73  51 W3        30.12S HX 103
AMERICUS       FAIR      90  70  51 N3        30.13S HX  95
HOMERVILLE     FAIR      91  75  59 CALM      30.11F HX 102
$$

!GMZ750-755-770-775-201700
...Coastal and Buoy Obs...

STATION/POSITION TIME  TEMP    WIND        PRES    VSBY  WAVE
                       AIR SEA DIR/SP/G                  HT/PER
                 (UTC) (F)     (DEG/KT/KT) (MB)    (MI)  (FT/S)
KEATON BEACH     1600   84     270/  4/  5 1019.6R
CEDAR KEY        1600   84     180/  3/  4 1020.1R
C TOWER          NOT AVBL
APALACHICOLA BUO 1550   83 87   40/  4/  4 1019.4S         1
PANAMA CITY BUOY 1550   83 85  340/  4/  6 1019.5R         1
MOBILE BUOY      1600   85 85  340/  6/  8 1019.8
ORANGE BCH AL BU 1550   85 87  340/  6/  8 1019.5R         1
$$




USA.gov is the U.S. government's official web portal to all federal, state and local government web resources and services.